FW8640 Weather Reports


Display with metric or nautical units.
time (UTC)temp
F
wind
direction
speed
MPH
gust
MPH
rain 1hr
in
rain 24hr
in
rain mn
in
humidity
%
barometer
mb
20260509090018 67 0 2.0 5.0 0.00 0.15 0.00 75 1016.1
20260509085018 66 0 1.0 4.0 0.00 0.15 0.00 76 1016.3
20260509084019 66 0 3.0 6.0 0.00 0.15 0.00 78 1016.5
20260509083019 66 0 2.0 4.0 0.00 0.15 0.00 80 1016.5
20260509082018 65 0 1.0 3.0 0.00 0.15 0.00 82 1016.4
20260509081020 65 0.0 1.0 0.00 0.15 0.00 84 1016.6
20260509080019 64 0.0 5.0 0.00 0.15 0.00 86 1016.7
20260509075018 63 0 1.0 3.0 0.00 0.15 0.00 87 1016.6
20260509074019 63 0.0 1.0 0.00 0.15 0.00 88 1016.5
20260509073018 62 0 1.0 2.0 0.00 0.15 0.00 88 1016.5
20260509072041 62 0 1.0 3.0 0.00 0.15 0.00 89 1016.6
20260509071019 61 0.0 2.0 0.00 0.15 0.00 89 1016.6
20260509070020 61 0 1.0 4.0 0.00 0.15 0.00 89 1016.7
20260509065018 61 0 1.0 3.0 0.00 0.15 0.00 89 1016.6
20260509064018 61 0 2.0 3.0 0.00 0.15 0.00 89 1016.5
20260509063020 61 0 1.0 3.0 0.00 0.15 0.00 89 1016.6
20260509062018 61 0 1.0 2.0 0.00 0.15 0.00 90 1016.4
20260509061018 60 0.0 2.0 0.00 0.15 0.00 90 1016.7
20260509060039 60 0 1.0 4.0 0.00 0.15 0.00 90 1016.6
20260509055019 60 0 1.0 3.0 0.00 0.15 0.00 90 1016.6
20260509054020 60 0 1.0 3.0 0.00 0.15 0.00 90 1016.3
20260509053018 60 0 1.0 3.0 0.00 0.15 0.00 90 1016.3
20260509052018 60 0 1.0 4.0 0.00 0.15 0.00 90 1016.4
20260509051105 60 0 2.0 5.0 0.00 0.15 0.00 90 1016.3
20260509050020 60 0 1.0 4.0 0.00 0.15 0.00 90 1016.0
20260509045019 60 0 1.0 2.0 0.00 0.15 0.00 90 1016.2
20260509044018 60 0.0 0.0 0.00 0.15 0.00 90 1016.0
20260509043019 60 0.0 0.0 0.00 0.15 0.00 90 1015.8
20260509042019 60 0.0 0.0 0.00 0.15 0.00 90 1015.8
20260509041018 59 0.0 0.0 0.00 0.15 0.00 90 1015.8
20260509040020 59 0.0 0.0 0.00 0.15 0.00 90 1015.8
20260509035041 59 0.0 0.0 0.00 0.15 0.00 90 1015.9
20260509034019 60 0.0 0.0 0.00 0.15 0.00 90 1016.1
20260509033018 60 0.0 0.0 0.00 0.15 0.00 90 1015.9
20260509032018 60 0.0 0.0 0.00 0.15 0.00 90 1015.8
20260509031019 60 0.0 0.0 0.00 0.15 0.00 90 1015.9
20260509030043 60 0.0 0.0 0.00 0.15 0.00 90 1015.9
20260509025020 60 0.0 0.0 0.00 0.15 0.00 90 1016.0
20260509024019 60 0.0 0.0 0.00 0.15 0.00 90 1015.9
20260509023018 60 0.0 0.0 0.00 0.15 0.00 90 1015.9
20260509022020 60 0.0 0.0 0.00 0.15 0.00 90 1015.9
20260509021042 60 0.0 0.0 0.00 0.15 0.00 90 1015.9
20260509020019 60 0.0 0.0 0.00 0.15 0.00 90 1015.9
20260509015017 60 0.0 0.0 0.00 0.15 0.00 90 1015.9
20260509014039 60 0.0 0.0 0.00 0.15 0.00 90 1016.1
20260509013040 60 0.0 0.0 0.00 0.15 0.00 90 1016.1
20260509012019 60 0.0 0.0 0.00 0.15 0.00 90 1016.2
20260509011019 60 0.0 0.0 0.00 0.15 0.00 90 1016.2
20260509010019 60 0.0 0.0 0.00 0.15 0.00 90 1016.1
20260509005018 60 0.0 0.0 0.00 0.15 0.00 90 1016.1
20260509004018 60 0.0 0.0 0.00 0.15 0.00 90 1016.2
20260509003019 60 0.0 0.0 0.00 0.15 0.00 90 1016.3
20260509002017 60 0.0 0.0 0.00 0.15 0.00 90 1016.5
20260509001018 60 0.0 0.0 0.00 0.15 0.00 90 1016.7
20260509000018 60 0.0 0.0 0.00 0.15 0.00 90 1016.8
20260508235018 60 0.0 0.0 0.00 0.15 0.00 90 1016.8
20260508234017 60 0.0 0.0 0.00 0.15 0.00 90 1017.0
20260508233018 60 0.0 0.0 0.00 0.15 0.00 90 1016.7
20260508232017 60 0.0 0.0 0.00 0.15 0.00 90 1016.9
20260508231019 60 0.0 0.0 0.00 0.15 0.00 90 1016.9
20260508230018 60 0.0 0.0 0.00 0.15 0.00 90 1017.1
20260508225022 60 0.0 0.0 0.00 0.15 0.00 90 1017.2
20260508224019 60 0.0 0.0 0.00 0.15 0.00 90 1017.2
20260508223040 60 0.0 0.0 0.00 0.15 0.00 90 1017.2
20260508222017 60 0.0 0.0 0.00 0.15 0.00 90 1017.5
20260508221018 60 0.0 0.0 0.00 0.15 0.00 89 1017.5
20260508220017 60 0.0 0.0 0.00 0.15 0.00 90 1017.4
20260508215017 60 0.0 0.0 0.00 0.15 0.00 89 1017.4
20260508214021 60 0.0 0.0 0.00 0.15 0.00 89 1017.5
20260508213043 61 0.0 0.0 0.00 0.15 0.00 90 1017.4
20260508212021 60 0.0 1.0 0.00 0.15 0.00 89 1017.6
20260508211019 61 0.0 1.0 0.00 0.15 0.00 89 1017.5
20260508210019 61 0.0 1.0 0.00 0.15 0.15 89 1017.5
20260508205019 61 0.0 1.0 0.00 0.15 0.15 89 1017.6
20260508204018 61 0.0 2.0 0.00 0.15 0.15 89 1017.6
20260508203018 61 0.0 2.0 0.00 0.15 0.15 89 1017.5
20260508202020 61 0.0 1.0 0.00 0.15 0.15 89 1017.4
20260508201018 61 0.0 1.0 0.00 0.15 0.15 89 1017.5
20260508200018 61 0 1.0 2.0 0.00 0.15 0.15 89 1017.7
20260508195041 61 0.0 2.0 0.00 0.15 0.15 89 1017.6
20260508194018 61 0.0 1.0 0.00 0.15 0.15 88 1017.8
20260508193020 61 0.0 0.0 0.00 0.15 0.15 88 1017.4
20260508192018 61 0.0 1.0 0.00 0.15 0.15 88 1017.5
20260508191019 62 0.0 1.0 0.00 0.15 0.15 88 1017.4
20260508190018 62 0.0 0.0 0.00 0.15 0.15 88 1017.4
20260508185018 62 0 1.0 2.0 0.00 0.15 0.15 88 1017.3
20260508184019 62 0.0 1.0 0.00 0.15 0.15 88 1017.1
20260508183018 62 0 1.0 3.0 0.00 0.15 0.15 88 1017.1
20260508182019 62 0 1.0 5.0 0.00 0.15 0.15 87 1017.0
20260508181019 62 0 1.0 4.0 0.00 0.15 0.15 87 1016.7
20260508180018 62 0.0 1.0 0.00 0.15 0.15 87 1016.8
20260508175039 62 0.0 2.0 0.00 0.15 0.15 87 1016.6
20260508174018 62 0.0 1.0 0.00 0.15 0.15 87 1016.5
20260508173039 62 0.0 1.0 0.00 0.15 0.15 87 1016.6
20260508172041 62 0.0 2.0 0.00 0.15 0.15 86 1016.4
20260508171020 62 0 1.0 4.0 0.00 0.15 0.15 86 1016.4
20260508165018 63 0 1.0 2.0 0.00 0.15 0.15 86 1016.4
20260508164018 63 0 1.0 2.0 0.00 0.15 0.15 86 1016.6
20260508163039 63 0.0 0.0 0.00 0.15 0.15 86 1016.6
20260508162017 63 0.0 0.0 0.01 0.15 0.15 85 1016.4
20260508161018 63 0.0 0.0 0.01 0.15 0.15 85 1016.3
20260508160018 64 0.0 1.0 0.01 0.15 0.15 85 1016.6
20260508155017 64 0 1.0 3.0 0.01 0.15 0.15 85 1016.2
20260508154017 64 0.0 1.0 0.01 0.15 0.15 85 1016.3
20260508153019 64 0.0 2.0 0.01 0.15 0.15 85 1016.3
20260508152042 64 0.0 2.0 0.00 0.14 0.14 85 1016.2
20260508151042 64 0.0 4.0 0.00 0.14 0.14 85 1016.3
20260508145018 65 0 1.0 2.0 0.00 0.14 0.14 85 1016.4
20260508144040 65 0.0 2.0 0.00 0.14 0.14 85 1016.3
20260508143018 64 0.0 2.0 0.00 0.14 0.14 84 1016.2
20260508142018 64 0 1.0 2.0 0.00 0.14 0.14 84 1016.4
20260508141019 64 0.0 2.0 0.00 0.14 0.14 84 1016.2
20260508140017 64 0 2.0 4.0 0.00 0.14 0.14 84 1016.4
20260508135039 64 0 2.0 4.0 0.00 0.14 0.14 84 1016.4
20260508134017 64 0 3.0 5.0 0.00 0.14 0.14 84 1016.5
20260508133019 64 0 4.0 9.0 0.00 0.14 0.14 85 1016.6
20260508132019 63 0 3.0 8.0 0.00 0.14 0.14 85 1016.7
20260508131017 63 0 4.0 8.0 0.01 0.14 0.14 85 1016.8
20260508130018 63 0 4.0 8.0 0.01 0.14 0.14 86 1016.9
20260508125144 63 0 2.0 6.0 0.01 0.14 0.14 86 1017.1
20260508124038 63 0 3.0 5.0 0.02 0.14 0.14 87 1017.2
20260508123017 63 0 1.0 3.0 0.04 0.14 0.14 87 1017.1
20260508122019 63 0 2.0 5.0 0.06 0.14 0.14 87 1017.3
20260508121017 63 0.0 3.0 0.06 0.13 0.13 87 1017.4
20260508120019 63 0.0 2.0 0.07 0.13 0.13 87 1017.7
20260508115018 63 0.0 2.0 0.08 0.13 0.13 87 1017.8
20260508114021 63 0.0 1.0 0.08 0.13 0.13 87 1018.1
20260508113019 63 0.0 1.0 0.06 0.10 0.10 87 1018.3
20260508112019 64 0.0 2.0 0.05 0.09 0.09 87 1018.4
20260508111022 64 0.0 1.0 0.04 0.07 0.07 87 1018.5
20260508110019 64 0.0 1.0 0.04 0.06 0.06 87 1018.7
20260508105021 64 0.0 1.0 0.04 0.06 0.06 87 1018.8
20260508104040 63 0.0 1.0 0.04 0.05 0.05 87 1018.9
20260508103019 64 0 1.0 3.0 0.04 0.04 0.04 86 1019.1
20260508102041 64 0.0 2.0 0.04 0.04 0.04 86 1019.2
20260508101019 64 0.0 2.0 0.03 0.03 0.03 85 1019.3
20260508100020 64 0.0 2.0 0.02 0.02 0.02 84 1019.5
20260508095019 64 0.0 2.0 0.02 0.02 0.02 84 1019.6
20260508094018 64 0.0 1.0 0.01 0.01 0.01 83 1019.9
20260508093017 64 0.0 1.0 0.00 0.00 0.00 82 1019.7
20260508092020 64 0.0 2.0 0.00 0.00 0.00 82 1019.6
20260508091019 65 0 1.0 3.0 0.00 0.00 0.00 80 1019.5